This is the latest recevied weather packets stored in our database for station/object WC4PEM-1. If no packets are shown the sender has not sent any weather packets the latest 10 day(s).
| Time | Temp. | Humidity | Pressure | Rain* | Wind** | Luminosity | Snow |
|---|---|---|---|---|---|---|---|
| 1778003303 | 28.33° C | 53% | 1014.8 hPa | 0 mm | - | 299 W/m² | - |
| 1778003216 | 28.89° C | 51% | 1015 hPa | 0 mm | - | 281 W/m² | - |
| 1778003004 | 28.33° C | 52% | 1015 hPa | 0 mm | - | 255 W/m² | - |
| 1778002704 | 28.89° C | 51% | 1015 hPa | 0 mm | - | 281 W/m² | - |
| 1778002544 | 29.44° C | 49% | 1015.2 hPa | 0 mm | - | 418 W/m² | - |
| 1778002505 | 28.89° C | 49% | 1015.1 hPa | 0 mm | - | 262 W/m² | - |
| 1778002404 | 28.89° C | 49% | 1015.1 hPa | 0 mm | - | 262 W/m² | - |
| 1778002204 | 28.89° C | 50% | 1015 hPa | 0 mm | - | 360 W/m² | - |
| 1778002104 | 28.89° C | 50% | 1015 hPa | 0 mm | - | 360 W/m² | - |
| 1778001926 | 28.89° C | 49% | 1015.1 hPa | 0 mm | - | 388 W/m² | - |
| 1778001804 | 28.89° C | 49% | 1015.1 hPa | 0 mm | - | 388 W/m² | - |
| 1778001504 | 28.89° C | 50% | 1015.1 hPa | 0 mm | - | 341 W/m² | - |
| 1778001204 | 28.89° C | 50% | 1015.2 hPa | 0 mm | - | 1046 W/m² | - |
| 1778000904 | 28.89° C | 51% | 1015.2 hPa | 0 mm | - | 343 W/m² | - |
| 1778000604 | 29.44° C | 49% | 1015.2 hPa | 0 mm | - | 418 W/m² | - |
| 1778000481 | 28.33° C | 52% | 1015.3 hPa | 0 mm | - | 1137 W/m² | - |
| 1778000304 | 29.44° C | 49% | 1015.3 hPa | 0 mm | - | 418 W/m² | - |
| 1778000127 | 29.44° C | 50% | 1015.3 hPa | 0 mm | - | 1109 W/m² | - |
| 1778000004 | 29.44° C | 50% | 1015.3 hPa | 0 mm | - | 1109 W/m² | - |
| 1777999704 | 28.89° C | 50% | 1015.4 hPa | 0 mm | - | 1072 W/m² | - |
| 1777999404 | 28.33° C | 52% | 1015.3 hPa | 0 mm | - | 1137 W/m² | - |
| 1777999224 | 28.33° C | 53% | 1015.3 hPa | 0 mm | - | 348 W/m² | - |
| 1777999104 | 28.33° C | 53% | 1015.3 hPa | 0 mm | - | 348 W/m² | - |
| 1777998804 | 27.78° C | 52% | 1015.3 hPa | 0 mm | - | 343 W/m² | - |
| 1777998504 | 27.78° C | 51% | 1015.4 hPa | 0 mm | - | 367 W/m² | - |
* Rain latest hour (hover to see other rain measurements)
** Current wind speed in m/s (hover to see current wind gust speed)